TIME,DELAY(SENSOR),PRES,OXYGEN,RAWTEMP,T(OPTODE),TCPHASE,FLUOR,BETA(BETA700),BETA(BETA412),BETA(BETA440),CDOM,C(CSC),ED(ED411.90),ED(ED443.80),ED(ED489.40),ED(ED554.70),LU(LU412.20),LU(LU443.80),LU(LU489.40),LU(LU555.00),COMP,TILTX,TILTY,CHECK
1340575219,5804,864.6099853515625000,184.9364013671875000,483.9979858398437500,8.3802003860473630,39.1527404785156250,51,107,102,80,75,15407,2147446985,2147793261,2147581696,2147825252,2147307108,2147452022,2147760932,2148272045,1438,6,14,29085
1340578815,5803,954.0000000000000000,219.2897033691406200,535.0280151367188000,6.7793598175048830,37.9517402648925800,51,108,104,80,77,15399,2147436745,2147798427,2147587309,2147834880,2147306742,2147445650,2147769069,2148281645,1241,6,15,52485
1340582415,5804,842.0000000000000000,227.3435974121093800,542.5164794921875000,6.5428619384765625,37.6423912048339840,51,105,102,78,76,15394,2147436086,2147800649,2147587117,2147833545,2147305920,2147444342,2147771309,2148281810,73,6,15,64387
1340586015,5805,9.8000001907348630,228.2675018310547000,542.8980712890625000,6.5307998657226560,37.5990104675293000,52,105,101,82,75,15395,2147435602,2147798784,2147585526,2147830912,2147305819,2147450514,2147771574,2148281088,352,6,15,946
1340589615,5803,9.1000003814697270,228.9813995361328000,544.4583129882812000,6.4814658164978030,37.5894317626953100,51,106,102,78,77,15377,2147434093,2147800448,2147586624,2147834450,2147304667,2147443702,2147772763,2148279744,296,6,15,36634
1340593215,5803,9.1999998092651370,232.6277008056640600,547.0731811523438000,6.3987388610839840,37.4426918029785160,51,106,103,77,76,15375,2147433618,2147799744,2147583524,2147833334,2147304704,2147445458,2147768054,2148281782,3455,6,15,26576
1340596815,5801,9.6000003814697270,232.9246978759765600,547.1224975585938000,6.3971810340881350,37.4275093078613300,51,111,103,79,75,15376,2147435538,2147797979,2147584722,2147832649,2147304182,2147447817,2147769581,2148280374,3234,6,15,50477
1340600415,5804,9.0000000000000000,234.4405059814453000,548.2294921875000000,6.3621430397033690,37.3676109313964840,51,106,103,78,76,15373,2147431579,2147798994,2147585088,2147833828,2147309750,2147443108,2147771492,2148281956,430,6,15,31848
1340604015,5808,989.0000000000000000,235.5334930419922000,548.7528076171875000,6.3455748558044430,37.3199501037597660,52,106,103,78,76,15373,2147435099,2147798930,2147584502,2147836809,2147307200,2147443117,2147770130,2148280822,84,6,15,35968
1340607615,5806,988.0000000000000000,235.1495056152343800,549.4976196289062000,6.3219928741455080,37.3538703918457000,51,107,104,79,76,15372,2147428041,2147802934,2147586221,2147832740,2147306486,2147445330,2147773696,2148280932,61,6,15,58088
1340611215,5805,1003.0000000000000000,236.5186004638672000,549.7395019531250000,6.3143329620361330,37.2872695922851560,51,106,106,78,76,15372,2147432813,2147799533,2147589321,2147834642,2147305581,2147444242,2147766738,2148281828,102,6,15,2121
1340614815,5802,10.1999998092651370,235.9308013916015600,549.1663818359375000,6.3324790000915530,37.3073310852050800,51,107,104,78,75,15369,2147435437,2147802331,2147587986,2147834898,2147307282,2147446034,2147774482,2148284498,325,6,15,55873
1340618415,5805,9.5000000000000000,236.6815032958984400,550.3524169921875000,6.2949218750000000,37.2898902893066400,50,107,102,79,76,15367,2147433344,2147800859,2147584850,2147831707,2147305737,2147445092,2147766866,2148283949,512,6,15,32803
1340622015,5805,1047.0000000000000000,235.6920013427734400,549.9672851562500000,6.3071188926696780,37.3343811035156250,51,106,105,78,76,15365,2147432100,2147794093,2147587904,2147833088,2147304210,2147443675,2147773138,2148278153,922,6,14,12854
1340625615,5801,10.0000000000000000,235.0662994384765600,549.1525878906250000,6.3329181671142580,37.3517494201660160,51,131,103,78,76,15370,2147434404,2147802907,2147589421,2147832896,2147303158,2147444882,2147770404,2148282669,630,6,15,308
1340629215,5803,11.8000001907348630,235.0791931152343800,548.7927246093750000,6.3443150520324710,37.3447608947753900,51,107,103,80,76,15365,2147435117,2147802944,2147588178,2147833490,2147302198,2147443958,2147770770,2148284041,3415,6,15,45290
1340632815,5802,10.0000000000000000,233.5666961669922000,548.6198120117188000,6.3497891426086430,37.4212303161621100,52,106,104,80,76,15365,2147435858,2147802121,2147587382,2147831808,2147306203,2147441801,2147767680,2148280347,3557,6,15,47478
1340636415,5805,1066.0000000000000000,233.2492980957031200,548.7274169921875000,6.3463821411132810,37.4392013549804700,52,106,103,78,76,15363,2147429449,2147801161,2147587410,2147833179,2147308973,2147442404,2147769042,2148282852,304,6,14,914
1340640015,5804,11.1000003814697270,233.0428924560547000,548.5418701171875000,6.3522529602050780,37.4470100402832000,52,107,106,78,75,15363,2147434313,2147799094,2147586148,2147835044,2147305920,2147446226,2147771913,2148280722,142,6,15,59817
1340643615,5803,11.1000003814697270,235.2752990722656200,548.7490844726562000,6.3456921577453610,37.3332099914550800,52,108,103,78,76,15350,2147431908,2147797741,2147587026,2147835584,2147301284,2147445302,2147774308,2148281298,3307,6,15,45864
1340647215,5805,10.3000001907348630,234.4004058837890600,549.8015747070312000,6.3123679161071780,37.3989181518554700,51,106,103,77,75,15362,2147434048,2147799963,2147589430,2147836598,2147306349,2147447698,2147769353,2148283867,540,6,14,32253
1340650815,5807,1079.0000000000000000,235.8919067382812500,551.1744995117188000,6.2688832283020020,37.3453903198242200,51,105,103,78,76,15308,2147430116,2147800649,2147589046,2147834944,2147305856,2147444845,2147771273,2148281462,12,6,14,48091
1340654415,5804,11.1000003814697270,235.3070983886718800,550.4844970703125000,6.2907390594482420,37.3637313842773440,51,105,104,78,76,15350,2147433270,2147800685,2147587803,2147834322,2147303936,2147443867,2147768841,2148282486,415,6,15,40049
1340658015,5802,10.6999998092651370,234.9994964599609400,549.3386230468750000,6.3270301818847660,37.3587608337402340,51,110,103,77,77,15354,2147432502,2147797540,2147586358,2147836571,2147305426,2147443666,2147772114,2148283593,3165,6,15,34901
1340661615,5807,10.6999998092651370,235.7507934570312500,551.6959838867188000,6.2523608207702640,37.3626289367675800,50,109,104,78,77,15357,2147434112,2147799670,2147588260,2147834139,2147305737,2147443035,2147768228,2148284717,405,6,15,65113
1340665215,5803,10.8999996185302730,236.3988952636718800,550.0247192382812000,6.3053021430969240,37.2982711791992200,51,104,103,79,77,15359,2147434020,2147800201,2147586578,2147835739,2147307666,2147447442,2147771017,2148281636,3577,6,15,55918
1340668815,5805,10.3999996185302730,236.1392974853515600,550.1185302734375000,6.3023300170898440,37.3138008117675800,51,109,103,78,76,15357,2147432073,2147798390,2147588032,2147836662,2147307702,2147443830,2147770742,2148281892,3315,6,15,21530
1340672415,5804,11.8000001907348630,237.0196990966797000,551.9508056640625000,6.2442870140075680,37.3009185791015600,51,106,104,78,78,15356,2147431296,2147798326,2147586834,2147835931,2147303698,2147448905,2147774390,2148284196,3135,6,15,20638
1340676015,5804,11.6000003814697270,236.1334075927734400,550.1519165039062000,6.3012728691101070,37.3147010803222660,51,106,104,78,77,15344,2147435172,2147802514,2147587044,2147835218,2147306916,2147446272,2147768804,2148280210,3469,6,15,60708
1340679615,5800,11.1000003814697270,235.6172027587890600,551.6547241210938000,6.2536721229553220,37.3683891296386700,52,105,105,78,78,15305,2147431634,2147797842,2147588982,2147834166,2147306816,2147447506,2147768996,2148281536,730,6,15,51913
1340683215,5804,10.8000001907348630,237.9201965332031200,551.6259155273438000,6.2545828819274900,37.2489814758300800,51,105,105,79,77,15294,2147432539,2147797604,2147586806,2147832941,2147306249,2147445485,2147774153,2148280859,3095,6,15,9226
1340686815,5801,10.0000000000000000,237.0104980468750000,551.6690063476562000,6.2532157897949220,37.2966499328613300,51,106,104,80,75,15295,2147433380,2147799497,2147589632,2147837696,2147303012,2147447972,2147773430,2148281298,131,6,15,26195
1340690415,5805,10.8000001907348630,237.6477966308593800,551.6973266601562000,6.2523188591003420,37.2640113830566400,51,105,103,78,76,15291,2147434541,2147796233,2147586852,2147833664,2147308041,2147448987,2147768000,2148285302,3437,6,15,24589
1340694015,5805,1150.0000000000000000,237.2796020507812500,551.4470214843750000,6.2602500915527340,37.2787399291992200,51,106,104,78,76,15296,2147428937,2147799250,2147587968,2147836233,2147302363,2147445120,2147771273,2148281380,3471,6,15,2232
1340697615,5803,1114.0000000000000000,237.7147979736328000,552.1322021484375000,6.2385411262512210,37.2683906555175800,52,107,104,78,76,15293,2147428498,2147799524,2147589385,2147836571,2147305737,2147445403,2147773366,2148281865,745,6,15,23716
1340701215,5804,1039.0000000000000000,238.5514984130859400,553.1118774414062000,6.2074952125549320,37.2434196472168000,51,107,103,79,75,15292,2147432777,2147796379,2147586194,2147834605,2147304082,2147445028,2147769353,2148285449,3403,6,15,302
1340704815,5803,11.3999996185302730,236.7566070556640600,551.3040161132812000,6.2647819519042970,37.3035697937011700,50,106,103,78,77,15261,2147433472,2147798628,2147585216,2147834971,2147307163,2147447204,2147769371,2148280795,3283,6,15,17362
1340708415,5804,10.3000001907348630,237.3522949218750000,551.3255004882812000,6.2640991210937500,37.2725715637207000,51,106,104,78,76,15284,2147434861,2147798317,2147586285,2147835547,2147305014,2147444964,2147769645,2148282276,3591,6,15,5778
1340712015,5804,11.3999996185302730,235.3827972412109400,550.3983764648438000,6.2934651374816895,37.3576698303222660,50,106,103,79,77,15286,2147432036,2147799268,2147586194,2147837211,2147305408,2147446592,2147771456,2148280448,3470,6,15,12988
1340715615,5804,1021.0000000000000000,235.1470947265625000,550.7521972656250000,6.2822608947753910,37.3765792846679700,51,107,104,78,76,15283,2147432347,2147800045,2147588041,2147839387,2147305024,2147444187,2147769526,2148279616,222,6,15,9103
1340719215,5805,1048.0000000000000000,235.8271026611328000,550.7294921875000000,6.2829799652099610,37.3405494689941400,50,106,104,80,77,15287,2147436635,2147798674,2147587593,2147833389,2147305499,2147447021,2147772553,2148281728,211,6,14,56498
1340719557,5807,1054.0000000000000000,235.7250976562500000,550.8665161132812000,6.2786388397216800,37.3486289978027340,51,105,104,79,77,15285,2147431789,2147797229,2147586477,2147834358,2147305627,2147451556,2147768676,2148282578,21,6,14,11546
